Вернуться в каталог

CZ-6A DEB

АктивенPO
NORAD 54565·DEBRIS·🇨🇳 China

Запущен Nov 11, 2022 с Taiyuan Satellite Launch Center

Loading…

Ближайшие Пролёты (ближайшие 24 часа)

TLE

СвежийSource: Space-Track

Эпоха: Sep 12, 2026, 15:06 UTC

1 54565U 22151LR  26255.62981636  .00005122  00000-0  83067-3 0  9994
2 54565  98.6256 326.3181 0090464  25.9190 334.6504 14.68963814202881

Отслеживайте CZ-6A DEB в реальном времени с AllMySat

Download on the App Store